YO9IPZ-13 Weather Reports


Display with metric or nautical units.
time (UTC)temp
F
wind
direction
speed
MPH
gust
MPH
rain 1hr
in
rain 24hr
in
rain mn
in
humidity
%
barometer
mb
20190119100021 38 40 3.0 7.0 0.00 0.00 0.00 59 1024.6
20190119095537 38 46 1.0 4.0 0.00 0.00 0.00 59 1025.0
20190119095021 38 36 1.0 4.0 0.00 0.00 0.00 59 1025.0
20190119093537 37 42 1.0 4.0 0.00 0.00 0.00 60 1025.0
20190119092520 37 34 2.0 4.0 0.00 0.00 0.00 60 1025.0
20190119092020 37 40 1.0 5.0 0.00 0.00 0.00 60 1025.0
20190119091521 37 55 1.0 4.0 0.00 0.00 0.00 61 1024.3
20190119091020 37 63 2.0 5.0 0.00 0.00 0.00 61 1024.0
20190119090519 37 26 3.0 6.0 0.00 0.00 0.00 61 1024.0
20190119090019 37 22 1.0 4.0 0.00 0.00 0.00 62 1023.9
20190119084020 37 31 2.0 5.0 0.00 0.00 0.00 62 1024.0
20190119082523 37 33 2.0 7.0 0.00 0.00 0.00 61 1024.0
20190119082017 37 62 3.0 6.0 0.00 0.00 0.00 60 1024.0
20190119081520 37 48 4.0 8.0 0.00 0.00 0.00 59 1023.3
20190119081039 37 43 2.0 6.0 0.00 0.00 0.00 59 1023.0
20190119080517 37 59 2.0 4.0 0.00 0.00 0.00 59 1023.0
20190119075519 37 65 3.0 8.0 0.00 0.00 0.00 59 1024.0
20190119075021 37 59 3.0 7.0 0.00 0.00 0.00 60 1024.0
20190119074517 37 63 3.0 9.0 0.00 0.00 0.00 61 1023.3
20190119073020 0 45 2.0 3.0 0.00 0.00 0.00 1023.0
20190119072601 0 0.0 0.0 0.00 0.00 0.00 1023.0
20190119072039 36 66 4.0 8.0 0.00 0.00 0.00 66 1023.0
20190119070016 36 60 3.0 6.0 0.00 0.00 0.00 66 1023.0
20190119065519 36 36 3.0 7.0 0.00 0.00 0.00 66 1023.0
20190119065019 36 61 3.0 5.0 0.00 0.00 0.00 66 1023.0
20190119064520 36 45 3.0 6.0 0.00 0.00 0.00 66 1023.0
20190119063517 36 54 2.0 7.0 0.00 0.00 0.00 68 1023.0
20190119063020 36 52 2.0 6.0 0.00 0.00 0.00 69 1022.3
20190119062540 35 68 3.0 6.0 0.00 0.00 0.00 69 1022.0
20190119062018 35 67 2.0 6.0 0.00 0.00 0.00 70 1022.0
20190119061520 35 65 3.0 8.0 0.00 0.00 0.00 70 1022.0
20190119061020 35 54 3.0 6.0 0.00 0.00 0.00 71 1022.0
20190119060021 35 46 4.0 7.0 0.00 0.00 0.00 71 1022.0
20190119055016 34 45 4.0 7.0 0.00 0.00 0.00 72 1022.0
20190119054520 34 45 4.0 7.0 0.00 0.00 0.00 72 1021.3
20190119054020 34 48 4.0 6.0 0.00 0.00 0.00 72 1021.0
20190119053021 34 56 4.0 7.0 0.00 0.00 0.00 72 1020.3
20190119052019 34 48 5.0 8.0 0.00 0.00 0.00 72 1020.0
20190119051518 34 45 5.0 7.0 0.00 0.00 0.00 72 1020.6
20190119051017 0 0.0 0.0 0.00 0.00 0.00 1021.0
20190119050520 34 40 4.0 6.0 0.00 0.00 0.00 72 1021.0
20190119045536 34 51 5.0 9.0 0.00 0.00 0.00 73 1021.0
20190119045016 34 38 4.0 8.0 0.00 0.00 0.00 73 1021.0
20190119044520 34 56 3.0 6.0 0.00 0.00 0.00 73 1021.0
20190119044020 34 51 3.0 5.0 0.00 0.00 0.00 72 1021.0
20190119043521 34 39 4.0 8.0 0.00 0.00 0.00 72 1021.0
20190119043020 34 62 5.0 10.0 0.00 0.00 0.00 72 1020.3
20190119042519 34 59 4.0 8.0 0.00 0.00 0.00 72 1020.0
20190119041517 34 36 5.0 8.0 0.00 0.00 0.00 72 1020.0
20190119041020 34 39 4.0 8.0 0.00 0.00 0.00 72 1020.0
20190119040520 34 38 5.0 8.0 0.00 0.00 0.00 72 1020.0
20190119040020 34 28 4.0 8.0 0.00 0.00 0.00 72 1020.0
20190119035018 35 25 6.0 11.0 0.00 0.00 0.00 71 1020.0
20190119034520 35 14 6.0 12.0 0.00 0.00 0.00 71 1020.0
20190119032520 35 18 6.0 7.0 0.00 0.00 0.00 72 1018.9
20190119032017 35 28 7.0 10.0 0.00 0.00 0.00 72 1018.9
20190119031518 35 14 6.0 10.0 0.00 0.00 0.00 72 1018.9
20190119031020 35 27 6.0 9.0 0.00 0.00 0.00 72 1018.9
20190119030517 35 31 7.0 10.0 0.00 0.00 0.00 72 1018.9
20190119030020 35 16 6.0 8.0 0.00 0.00 0.00 72 1018.3
20190119025520 35 20 5.0 9.0 0.00 0.00 0.00 72 1017.9
20190119025019 35 27 5.0 9.0 0.00 0.00 0.00 72 1017.9
20190119024517 35 17 4.0 7.0 0.00 0.00 0.00 73 1018.0
20190119024019 35 24 7.0 11.0 0.00 0.00 0.00 74 1017.9
20190119023516 34 20 3.0 8.0 0.00 0.00 0.00 73 1017.9
20190119023017 34 8 1.0 3.0 0.00 0.00 0.00 71 1018.8
20190119022518 34 1 0.0 4.0 0.00 0.00 0.00 71 1018.9
20190119022020 34 358 1.0 4.0 0.00 0.00 0.00 71 1018.9
20190119021519 34 21 2.0 4.0 0.00 0.00 0.00 70 1018.9
20190119021016 34 12 1.0 3.0 0.00 0.00 0.00 69 1019.0
20190119020517 34 6 1.0 3.0 0.00 0.00 0.00 69 1018.9
20190119015516 35 11 1.0 3.0 0.00 0.00 0.00 68 1018.9
20190119014541 34 2 0.0 2.0 0.00 0.00 0.00 66 1018.9
20190119014020 35 344 1.0 4.0 0.00 0.00 0.00 66 1018.9
20190119013539 35 0 2.0 3.0 0.00 0.00 0.00 65 1018.9
20190119013019 35 357 1.0 3.0 0.00 0.00 0.00 65 1018.9
20190119012516 35 7 2.0 3.0 0.00 0.00 0.00 65 1018.9
20190119012016 35 14 1.0 3.0 0.00 0.00 0.00 64 1018.9
20190119011520 35 9 2.0 3.0 0.00 0.00 0.00 64 1018.9
20190119011021 35 5 0.0 2.0 0.00 0.00 0.00 64 1018.9
20190119010040 35 328 0.0 2.0 0.00 0.00 0.00 64 1018.3
20190119005021 35 315 1.0 3.0 0.00 0.00 0.00 65 1017.9
20190119004520 35 0.0 0.0 0.00 0.00 0.00 64 1018.0
20190118230022 35 270 1.0 2.0 0.00 0.00 0.00 68 1016.0
20190118225520 35 270 2.0 3.0 0.00 0.00 0.00 69 1016.0
20190118225040 35 274 1.0 3.0 0.00 0.00 0.00 69 1016.0
20190118224519 35 291 0.0 3.0 0.00 0.00 0.00 69 1016.0
20190118223521 34 0.0 0.0 0.00 0.00 0.00 67 1016.0
20190118223019 34 0.0 0.0 0.00 0.00 0.00 65 1016.0
20190118222517 34 0.0 0.0 0.00 0.00 0.00 65 1016.0
20190118222020 34 0.0 0.0 0.00 0.00 0.00 65 1016.0
20190118221017 35 0.0 0.0 0.00 0.00 0.00 64 1016.0
20190118220520 35 0.0 0.0 0.00 0.00 0.00 63 1016.0
20190118220018 35 0.0 0.0 0.00 0.00 0.00 63 1016.0
20190118215519 35 0.0 0.0 0.00 0.00 0.00 62 1016.0
20190118215040 35 0.0 0.0 0.00 0.00 0.00 61 1016.0
20190118214517 35 0.0 0.0 0.00 0.00 0.00 61 1016.0
20190118214019 36 0.0 0.0 0.00 0.00 0.00 61 1016.0
20190118213519 36 0.0 0.0 0.00 0.00 0.00 61 1016.0
20190118213015 36 0.0 0.0 0.00 0.00 0.00 61 1016.0
20190118212558 36 0.0 0.0 0.00 0.00 0.00 62 1016.0
20190118212020 36 0.0 0.0 0.00 0.00 0.00 62 1016.0
20190118211520 36 290 0.0 2.0 0.00 0.00 0.00 63 1015.3
20190118211020 36 288 1.0 3.0 0.00 0.00 0.00 63 1015.0
20190118210521 36 282 0.0 3.0 0.00 0.00 0.00 62 1015.0
20190118205520 36 0.0 0.0 0.00 0.00 0.00 60 1015.0
20190118204520 36 0.0 0.0 0.00 0.00 0.00 58 1014.9
20190118204017 36 0.0 0.0 0.00 0.00 0.00 58 1015.0
20190118203520 36 0.0 0.0 0.00 0.00 0.00 58 1015.0
20190118203020 37 270 0.0 2.0 0.00 0.00 0.00 58 1014.9
20190118202520 37 270 1.0 3.0 0.00 0.00 0.00 58 1015.0
20190118202021 37 270 0.0 2.0 0.00 0.00 0.00 58 1015.0
20190118201519 37 296 0.0 2.0 0.00 0.00 0.00 58 1014.9
20190118201020 37 286 1.0 3.0 0.00 0.00 0.00 58 1015.0
20190118200520 38 275 1.0 2.0 0.00 0.00 0.00 58 1015.0
20190118200040 38 270 0.0 1.0 0.00 0.00 0.00 57 1014.9
20190118195019 38 286 1.0 2.0 0.00 0.00 0.00 57 1015.0
20190118194517 38 292 0.0 3.0 0.00 0.00 0.00 56 1014.9
20190118194016 38 0.0 0.0 0.00 0.00 0.00 54 1015.0
20190118193540 39 0.0 0.0 0.00 0.00 0.00 53 1015.0
20190118193016 39 0.0 0.0 0.00 0.00 0.00 52 1014.9
20190118192520 40 0.0 0.0 0.00 0.00 0.00 51 1015.0
20190118191600 40 0.0 0.0 0.00 0.00 0.00 51 1015.0
20190118191020 40 0.0 0.0 0.00 0.00 0.00 50 1015.0
20190118190022 41 0.0 0.0 0.00 0.00 0.00 50 1014.9
20190118185020 41 0.0 0.0 0.00 0.00 0.00 49 1015.0
20190118184521 0 0.0 0.0 0.00 0.00 0.00 1014.9
20190118184021 41 0.0 0.0 0.00 0.00 0.00 49 1015.0
20190118183520 41 0.0 0.0 0.00 0.00 0.00 49 1015.0
20190118183018 42 0.0 0.0 0.00 0.00 0.00 49 1014.9
20190118182520 42 0.0 0.0 0.00 0.00 0.00 48 1015.0
20190118182040 42 0.0 0.0 0.00 0.00 0.00 47 1015.0
20190118181520 42 0.0 0.0 0.00 0.00 0.00 47 1014.9
20190118181020 42 0.0 0.0 0.00 0.00 0.00 46 1015.0
20190118180518 42 0.0 0.0 0.00 0.00 0.00 46 1014.9
20190118180021 42 0.0 0.0 0.00 0.00 0.00 46 1014.1
20190118175518 42 151 0.0 2.0 0.00 0.00 0.00 47 1014.0
20190118175018 42 140 1.0 2.0 0.00 0.00 0.00 49 1014.0
20190118174517 41 141 1.0 3.0 0.00 0.00 0.00 51 1014.6
20190118173517 41 0.0 0.0 0.00 0.00 0.00 55 1014.9
20190118173020 40 0.0 0.0 0.00 0.00 0.00 55 1015.0
20190118172023 40 0.0 0.0 0.00 0.00 0.00 54 1015.0
20190118171521 40 0.0 0.0 0.00 0.00 0.00 53 1015.0
20190118171032 40 0.0 0.0 0.00 0.00 0.00 53 1015.0
20190118170515 40 0.0 0.0 0.00 0.00 0.00 53 1015.0
20190118170019 40 0.0 0.0 0.00 0.00 0.00 53 1014.9
20190118165020 40 0.0 0.0 0.00 0.00 0.00 52 1015.0
20190118164559 40 0.0 0.0 0.00 0.00 0.00 52 1014.9
20190118164020 40 0.0 0.0 0.00 0.00 0.00 52 1015.0
20190118163519 41 0.0 0.0 0.00 0.00 0.00 51 1015.0
20190118163038 41 0.0 0.0 0.00 0.00 0.00 51 1014.9
20190118162521 41 0.0 0.0 0.00 0.00 0.00 51 1015.0
20190118162019 41 0.0 0.0 0.00 0.00 0.00 51 1015.0
20190118161540 41 0.0 0.0 0.00 0.00 0.00 50 1014.9
20190118161016 41 0.0 0.0 0.00 0.00 0.00 50 1015.0
20190118160519 41 0.0 0.0 0.00 0.00 0.00 50 1015.0
20190118160021 41 0.0 0.0 0.00 0.00 0.00 50 1014.9
20190118155020 42 233 0.0 2.0 0.00 0.00 0.00 49 1015.0
20190118154539 42 267 0.0 4.0 0.00 0.00 0.00 50 1014.9
20190118154020 42 287 1.0 3.0 0.00 0.00 0.00 50 1015.0
20190118153020 42 282 2.0 4.0 0.00 0.00 0.00 51 1014.9
20190118152516 42 292 0.0 1.0 0.00 0.00 0.00 51 1015.0
20190118152019 42 0.0 0.0 0.00 0.00 0.00 50 1015.0
20190118151540 43 0.0 0.0 0.00 0.00 0.00 50 1014.9
20190118151019 43 0.0 0.0 0.00 0.00 0.00 50 1015.0
20190118150520 44 0.0 0.0 0.00 0.00 0.00 49 1015.0
20190118150017 44 0.0 0.0 0.00 0.00 0.00 48 1014.9
20190118145017 45 0.0 0.0 0.00 0.00 0.00 47 1015.0
20190118144519 46 0.0 0.0 0.00 0.00 0.00 46 1014.1
20190118144020 46 0.0 0.0 0.00 0.00 0.00 44 1014.0
20190118143516 47 270 0.0 1.0 0.00 0.00 0.00 43 1014.0
20190118141521 49 0.0 0.0 0.00 0.00 0.00 41 1014.9
20190118141020 49 0.0 0.0 0.00 0.00 0.00 40 1015.0
20190118135520 51 257 0.0 2.0 0.00 0.00 0.00 38 1015.0
20190118135036 51 282 2.0 4.0 0.00 0.00 0.00 37 1015.0
20190118134521 52 274 2.0 4.0 0.00 0.00 0.00 37 1014.9
20190118134019 52 276 2.0 6.0 0.00 0.00 0.00 37 1015.0
20190118133518 53 280 2.0 5.0 0.00 0.00 0.00 36 1015.0
20190118133021 53 310 1.0 4.0 0.00 0.00 0.00 36 1014.1
20190118132558 53 273 2.0 4.0 0.00 0.00 0.00 36 1014.0
20190118132041 53 275 3.0 6.0 0.00 0.00 0.00 36 1014.0
20190118131517 53 282 4.0 7.0 0.00 0.00 0.00 35 1014.0
20190118130516 55 295 1.0 6.0 0.00 0.00 0.00 34 1014.0
20190118130021 56 277 1.0 4.0 0.00 0.00 0.00 33 1014.8
20190118125536 56 289 1.0 6.0 0.00 0.00 0.00 32 1015.0
20190118125059 56 263 1.0 4.0 0.00 0.00 0.00 32 1015.0
20190118123040 57 238 0.0 2.0 0.00 0.00 0.00 31 1014.9
20190118122520 56 0.0 1.0 0.00 0.00 0.00 33 1015.0
20190118122020 56 270 0.0 2.0 0.00 0.00 0.00 31 1015.0
20190118121021 57 262 0.0 2.0 0.00 0.00 0.00 34 1015.0
20190118120518 56 245 0.0 3.0 0.00 0.00 0.00 35 1015.0
20190118120020 56 255 0.0 3.0 0.00 0.00 0.00 36 1015.8
20190118115020 55 250 0.0 2.0 0.00 0.00 0.00 34 1016.0
20190118114520 55 270 0.0 2.0 0.00 0.00 0.00 34 1015.1
20190118113519 55 246 0.0 3.0 0.00 0.00 0.00 36 1015.0
20190118113017 54 254 1.0 3.0 0.00 0.00 0.00 36 1014.9
20190118112517 54 270 0.0 3.0 0.00 0.00 0.00 36 1015.0
20190118112021 0 270 2.0 3.0 0.00 0.00 0.00 1015.0
20190118111020 53 261 1.0 4.0 0.00 0.00 0.00 36 1016.0
20190118110020 53 269 2.0 5.0 0.00 0.00 0.00 36 1016.0
20190118105517 52 277 2.0 5.0 0.00 0.00 0.00 36 1016.0
20190118105019 52 292 2.0 5.0 0.00 0.00 0.00 36 1016.0
20190118104041 52 284 2.0 6.0 0.00 0.00 0.00 37 1016.0
20190118103517 52 265 2.0 4.0 0.00 0.00 0.00 37 1016.0
20190118103019 53 267 1.0 4.0 0.00 0.00 0.00 37 1016.0
20190118102520 53 263 1.0 3.0 0.00 0.00 0.00 38 1016.0
20190118102020 53 255 0.0 3.0 0.00 0.00 0.00 38 1016.0
20190118101519 53 278 1.0 2.0 0.00 0.00 0.00 38 1016.0
20190118101020 53 0.0 0.0 0.00 0.00 0.00 38 1016.0
20190118100520 0 0.0 2.0 0.00 0.00 0.00 1016.0